Date String (YYYY-MM-DD hh:mm:ss) UTC,Instrument flags,Ambient pressure (hPa),Sample flow (lpm),Bypass flow (lpm),Sample temperature (°C),Ambient temperature (°C),ASC tube jacket temperature (°C),LED temperature (°C),Box temperature (°C),Sample RH (%),Span deviation,Mass concentration (μg/m³),Mass concentration (μg/m³),Mass concentration (μg/m³)
DateTimeUTC,F1_M11,P_M11,Q1_M11,Q2_M11,T1_M11,T2_M11,T3_M11,T4_M11,T5_M11,U1_M11,ZSPAN_M11,X2_M11,X0_M11,X1_M11
2022-02-02 04:00:00,,0823.3,5.01,0.00,22.5,21.9,00.0,31.5,24.1,12.0,0000.0,0002.62,0003.73,0002.18
2022-02-02 04:01:00,,0823.2,4.99,0.00,22.4,21.8,00.0,31.5,24.0,12.0,0000.0,0002.61,0003.72,0002.18
2022-02-02 04:02:00,,0823.2,5.02,0.00,22.3,21.6,00.0,31.5,23.9,12.0,0000.0,0002.58,0003.67,0002.17
2022-02-02 04:03:00,,0823.3,5.00,0.00,22.3,21.5,00.0,31.5,23.8,12.1,0000.0,0002.59,0003.70,0002.17
2022-02-02 04:04:00,,0823.3,4.99,0.00,22.2,21.4,00.0,31.5,23.8,12.1,0000.0,0002.57,0003.68,0002.18
2022-02-02 04:05:00,,0823.3,5.01,0.00,22.2,21.5,00.0,31.4,23.8,12.1,0000.0,0002.53,0003.52,0002.16
2022-02-02 04:06:00,,0823.3,4.99,0.00,22.3,22.0,00.0,31.5,24.0,12.0,0000.0,0002.52,0003.46,0002.16
2022-02-02 04:07:00,,0823.3,5.00,0.00,22.4,22.8,00.0,31.5,24.3,12.0,0000.0,0002.53,0003.50,0002.15
2022-02-02 04:08:00,,0823.3,4.99,0.00,22.6,23.1,00.0,31.5,24.5,11.8,0000.0,0002.56,0003.56,0002.15
2022-02-02 04:09:00,,0823.2,5.01,0.00,22.6,22.9,00.0,31.5,24.4,11.8,0000.0,0002.62,0003.68,0002.17
2022-02-02 04:10:00,,0823.3,5.00,0.00,22.5,22.6,00.0,31.5,24.3,11.8,0000.0,0002.62,0003.71,0002.16
2022-02-02 04:11:00,,0823.3,5.00,0.00,22.5,22.4,00.0,31.5,24.1,11.8,0000.0,0002.60,0003.65,0002.17
2022-02-02 04:12:00,,0823.3,5.01,0.00,22.4,22.1,00.0,31.5,24.0,11.9,0000.0,0002.61,0003.72,0002.18
2022-02-02 04:13:00,,0823.3,4.98,0.00,22.3,21.9,00.0,31.5,23.9,11.9,0000.0,0002.65,0003.83,0002.19
2022-02-02 04:14:00,,0823.4,5.00,0.00,22.3,21.7,00.0,31.5,23.8,11.9,0000.0,0002.68,0004.00,0002.21
2022-02-02 04:15:00,,0823.4,4.98,0.00,22.2,21.6,00.0,31.4,23.7,12.0,0000.0,0002.69,0003.99,0002.21
2022-02-02 04:16:00,,0823.4,5.02,0.00,22.2,21.4,00.0,31.4,23.7,12.0,0000.0,0002.75,0004.21,0002.22
2022-02-02 04:17:00,,0823.4,4.99,0.00,22.1,21.4,00.0,31.4,23.6,12.0,0000.0,0002.76,0004.24,0002.23
2022-02-02 04:18:00,,0823.4,4.98,0.00,22.2,21.8,00.0,31.4,23.8,12.0,0000.0,0002.75,0004.36,0002.22
2022-02-02 04:19:00,,0823.4,5.00,0.00,22.3,22.6,00.0,31.4,24.1,11.9,0000.0,0002.72,0004.40,0002.20
2022-02-02 04:20:00,,0823.4,5.01,0.00,22.5,23.2,00.0,31.4,24.4,11.8,0000.0,0002.67,0004.39,0002.17
2022-02-02 04:21:00,,0823.4,5.00,0.00,22.5,23.0,00.0,31.5,24.4,11.8,0000.0,0002.65,0004.34,0002.17
2022-02-02 04:22:00,,0823.3,5.00,0.00,22.5,22.7,00.0,31.5,24.3,11.8,0000.0,0002.65,0004.36,0002.17
2022-02-02 04:23:00,,0823.3,4.99,0.00,22.5,22.4,00.0,31.5,24.2,11.8,0000.0,0002.72,0004.45,0002.18
2022-02-02 04:24:00,,0823.2,5.00,0.00,22.4,22.2,00.0,31.5,24.1,11.8,0000.0,0002.70,0004.40,0002.18
2022-02-02 04:25:00,,0823.2,5.00,0.00,22.4,22.0,00.0,31.4,24.0,11.9,0000.0,0002.68,0004.30,0002.18
2022-02-02 04:26:00,,0823.2,5.00,0.00,22.3,21.9,00.0,31.4,23.9,11.9,0000.0,0002.70,0004.33,0002.19
2022-02-02 04:27:00,,0823.2,5.01,0.00,22.3,21.7,00.0,31.4,23.9,11.9,0000.0,0002.65,0004.13,0002.18
2022-02-02 04:28:00,,0823.2,4.99,0.00,22.3,21.6,00.0,31.4,23.8,11.9,0000.0,0002.64,0004.11,0002.18
2022-02-02 04:29:00,,0823.3,5.02,0.00,22.2,21.5,00.0,31.4,23.8,12.0,0000.0,0002.66,0004.07,0002.19
2022-02-02 04:30:00,,0823.3,4.99,0.00,22.2,21.5,00.0,31.4,23.7,12.0,0000.0,0002.62,0003.85,0002.19
2022-02-02 04:31:00,,0823.3,5.01,0.00,22.1,21.4,00.0,31.3,23.7,12.0,0000.0,0002.66,0003.87,0002.21
2022-02-02 04:32:00,,0823.3,5.00,0.00,22.1,21.4,00.0,31.3,23.7,12.1,0000.0,0002.70,0003.97,0002.23
2022-02-02 04:33:00,,0823.3,4.99,0.00,22.2,21.9,00.0,31.3,23.9,12.0,0000.0,0002.74,0004.05,0002.26
2022-02-02 04:34:00,,0823.4,5.00,0.00,22.3,22.8,00.0,31.4,24.2,12.0,0000.0,0002.74,0003.99,0002.29
2022-02-02 04:35:00,,0823.4,5.00,0.00,22.5,23.2,00.0,31.4,24.4,11.9,0000.0,0002.78,0004.01,0002.34
2022-02-02 04:36:00,,0823.3,5.01,0.00,22.5,23.0,00.0,31.4,24.4,11.8,0000.0,0002.80,0004.02,0002.37
2022-02-02 04:37:00,,0823.3,5.00,0.00,22.5,22.7,00.0,31.4,24.3,11.8,0000.0,0002.82,0004.11,0002.38
2022-02-02 04:38:00,,0823.3,4.99,0.00,22.5,22.4,00.0,31.4,24.2,11.9,0000.0,0002.84,0004.18,0002.40
2022-02-02 04:39:00,,0823.3,5.02,0.00,22.4,22.2,00.0,31.4,24.1,11.9,0000.0,0002.90,0004.32,0002.42
2022-02-02 04:40:00,,0823.3,4.99,0.00,22.4,22.0,00.0,31.4,24.0,11.9,0000.0,0002.95,0004.44,0002.45
2022-02-02 04:41:00,,0823.3,5.01,0.00,22.3,21.8,00.0,31.4,23.9,11.9,0000.0,0002.97,0004.50,0002.46
2022-02-02 04:42:00,,0823.3,5.01,0.00,22.3,21.7,00.0,31.4,23.8,12.0,0000.0,0003.04,0004.57,0002.50
2022-02-02 04:43:00,,0823.3,4.99,0.00,22.2,21.5,00.0,31.4,23.7,12.0,0000.0,0003.10,0004.72,0002.55
2022-02-02 04:44:00,,0823.4,5.02,0.00,22.1,21.3,00.0,31.3,23.6,12.0,0000.0,0003.12,0004.70,0002.58
2022-02-02 04:45:00,,0823.4,5.00,0.00,22.1,21.6,00.0,31.3,23.7,12.0,0000.0,0003.13,0004.73,0002.58
2022-02-02 04:46:00,,0823.4,4.99,0.00,22.3,22.4,00.0,31.4,24.0,11.9,0000.0,0003.16,0004.89,0002.60
2022-02-02 04:47:00,,0823.4,5.00,0.00,22.4,23.0,00.0,31.4,24.3,11.8,0000.0,0003.21,0005.06,0002.63
2022-02-02 04:48:00,,0823.3,5.00,0.00,22.5,22.9,00.0,31.4,24.3,11.7,0000.0,0003.22,0005.04,0002.66
2022-02-02 04:49:00,,0823.3,5.00,0.00,22.4,22.6,00.0,31.4,24.2,11.7,0000.0,0003.29,0005.43,0002.73
2022-02-02 04:50:00,,0823.4,5.03,0.00,22.3,22.2,00.0,31.4,24.0,11.7,0000.0,0003.35,0005.61,0002.82
2022-02-02 04:51:00,,0823.4,4.98,0.00,22.3,21.8,00.0,31.4,23.8,11.7,0000.0,0003.43,0006.30,0002.92
2022-02-02 04:52:00,,0823.5,4.99,0.00,22.3,22.1,00.0,31.4,23.9,11.6,0000.0,0003.51,0006.60,0003.03
2022-02-02 04:53:00,,0823.5,5.00,0.00,22.4,22.8,00.0,31.4,24.2,11.3,0000.0,0003.50,0007.05,0003.00
2022-02-02 04:54:00,,0823.6,5.00,0.00,22.5,23.4,00.0,31.5,24.5,10.9,0000.0,0003.44,0007.50,0002.92
2022-02-02 04:55:00,,0823.7,5.00,0.00,22.7,23.5,00.0,31.5,24.6,10.7,0000.0,0003.41,0007.49,0002.83
2022-02-02 04:56:00,,0823.6,5.00,0.00,22.7,23.2,00.0,31.5,24.4,10.5,0000.0,0003.36,0007.41,0002.74
2022-02-02 04:57:00,,0823.7,5.00,0.00,22.6,22.8,00.0,31.5,24.3,10.4,0000.0,0003.29,0007.24,0002.64
2022-02-02 04:58:00,,0823.7,5.00,0.00,22.5,22.5,00.0,31.5,24.1,10.3,0000.0,0003.22,0007.10,0002.54
2022-02-02 04:59:00,,0823.6,5.01,0.00,22.5,22.2,00.0,31.5,24.0,10.2,0000.0,0003.15,0006.89,0002.44
